SL-14 R/B

Satellite information

Favourite Embed

Satellite Type and Status

ROCKET BODYIN ORBIT

Key statistics

Satellite SL-14 R/B at a glance.

Uptime

16055

Days in orbit

Revolutions

≈ 13.6

Per day

Orbit

LEO

Low Earth Orbit

Inclination

82.5

Latest

Satellite identification and parameters

Extended collection of information and parameters for SL-14 R/B.

Object identification

Identified? True

Debris? False

Object name: SL-14 R/B

International designator: 1981-094B

Object number (NORAD): 12849

Object ID (CCSDS): 12849

Country: COMMONWEALTH OF INDEPENDENT STATES (CIS)

Current information (Y/N): Y

RCS size: LARGE

Orbital parameters

Period: 106.109 minutes

Inclination: 82.4929 deg

SMA: 7424.385 km

Apoapsis: 1694.054 km

Periapsis: 398.445 km

RAAN: 17.9255 deg

Eccentricy: 0.08725369

Argument of periapsis: 246.1555 deg

Mean anomaly: 104.5832 deg

Mean motion: 13.57100713 rev/day

Mean motion (dot): 0.00002832 rev/day2

B* drag term: 0.00025854721 1/REarth

Two-line elements (TLE)

Creation date: Sept. 3, 2025, 10:15 a.m.

Reference frame: TEME

Reference center: EARTH

Epoch: Sept. 3, 2025, 2:34 a.m. UTC

TLE line 0: 0 SL-14 R/B

TLE line 1: 1 12849U 81094B 25246.10717661 .00002832 00000-0 25855-3 0 9997

TLE line 2: 2 12849 82.4929 17.9255 0872537 246.1555 104.5832 13.57100713147271

Live tracking on map

Real-time ground track for satellite SL-14 R/B.

In-orbit conjunctions

A list of the most updated potential collisions computed for object SL-14 R/B.

Target Orbit TCA Probability of collision Miss distance Type
DELTA 1 DEB SSO 2025-03-10 12:21:29 0.0001377489 248.0 (m) DEBRIS
FENGYUN 1C DEB SSO 2025-03-02 03:47:41 0.0006974156 10.0 (m) DEBRIS
COSMOS 2279 LEO 2024-06-18 07:16:56 0.0004307019 882.0 (m) PAYLOAD

Associated space launch

Joint Soviet-French satellite dedicated to magnetospheric research

SL-14 R/B was lifted into orbit during the mission ‘Tsiklon-3 | Aureole 3’, on board a Tsiklon-3 space rocket.

The launch took place on Sept. 21, 1981, 1:10 p.m. from 32/1.

For more information about the launch, click the button.

Launch to space Tsiklon-3 | Aureole 3
Tsiklon-3 | Aureole 3

Agency: N/A

Status: Launch Successful

Launch date: Sept. 21, 1981, 1:10 p.m. UTC

Rocket: Tsiklon-3

Launch pad: 32/1

Location: Plesetsk Cosmodrome, Russian Federation

...

Latest news about this satellite

There are no fresh news available about this satellite. Check back as we update our databases every day.


Newsletter sign-up

Weekly statistics, charts and insights to help you stay on top of the space industry.